Showing default

FLOCK 4H 16, 66719

Orbit data source: Space-Track

FLOCK 4H 16, 66719 is a payload satellite owned by Planet (US) in SSO that was launched on Fri, 28 Nov 2025 UTC via an FALCON 9 launch vehicle from the Air Force Western Test Range (AFWTR). Payload-class satellites include a variety of spacecraft equipped with specific instruments for various scientific and technological missions. These include communications satellites like Starlink; space stations such as the ISS; scientific satellites like the Hubble; Earth observation satellites from companies like Planet Labs, Umbra, and HawkEye 360; GPS; miniature CubeSats for education and research; and military/defense satellites.

Loading next visibility...
Identifier
66719, 2025-276BF
Orbit
SSO
Country
Flag of USUS
Related business
Manufacturer
Planet
Mission
Operational Commercial Imaging
Bus & Motor
CUBESAT 3U, Unknown motor
Mass
5.7 kg wet, 5.7 kg dry
Launch date (UTC)
2025-11-28 (6 months ago)
Launch vehicle
FALCON 9
Launch site
Air Force Western Test Range (AFWTR)
Object type
Payload
Rocket body
Debris
Shape & HBR
Box + 2 Pan, 1.0 m
Radar Cross Section
0.072 m², Medium (>0.1 m² and < 1m²)

Expand to show TLE details & history
Last TLE update: 1 week ago

TLE from 1 week ago
0 FLOCK 4H 16
1 66719U 25276BF  26154.52848068  .00007576  00000-0  35825-3 0  9991
2 66719  97.4238 228.3366 0005672  63.8051 296.3767 15.19651416 28343
Epoch: 2026-06-03T12:41Z
TLE epoch observation values (Epoch: 2026-06-03T12:41:00.730Z)
Latitude
Longitude
146.09776°
Altitude
508.249 km
Speed
7.611 km/s
True Right ascension
15h 13m 20s
True Declination
0° 00' 00"
Sunlit
Object was in full shadow at epoch
Visualization orbit readout
Latitude
Unknown
Longitude
Unknown
Altitude
Unknown
Speed
Unknown
Apparent Right ascension
Unknown
Apparent Declination
Unknown
Sunlit
N/A
Visualization observer readout
Local Sidereal Time
20:50:34
Azimuth
Unknown
Elevation
Unknown
Doppler factor
Unknown
Orbital elements
Apogee altitude
507.764 km
Perigee altitude
499.957 km
Semi-major axis
6,881.997 km
Eccentricity
0.00057
Inclination
97.4238°
RAAN
228.3366°
Arg. of periapsis
63.8051°
True anomaly
296.31845°
Mean anomaly
296.3767°
Eccentric anomaly
296.34758°
Mean motion
3.80164 °/min
Orbital period
94.7 mins
BSTAR
0.00035825
Loading maneuver chart data...
Computing Atmospheric mass density...
Loading historical data...
Loading historical data...
Loading historical data...
Loading historical data...
Loading historical data...
Loading historical data...
Loading historical data...

Documentation

Showing up to 5 results
|